| time (UTC) | temp F | wind direction | speed MPH | gust MPH | rain 1hr in | rain 24hr in | rain mn in | humidity % | barometer mb |
| 20260507024536 | 52 | 35 | 1.0 | 6.0 | 0.00 | 0.76 | 0.01 | 90 | 1011.0 |
| 20260507023030 | 52 | 9 | 4.0 | 8.0 | 0.00 | 0.76 | 0.01 | 90 | 1011.0 |
| 20260507021529 | 52 | 41 | 4.0 | 10.0 | 0.00 | 0.76 | 0.01 | 90 | 1011.2 |
| 20260507020028 | 52 | 29 | 1.0 | 5.0 | 0.00 | 0.76 | 0.01 | 91 | 1011.2 |
| 20260507014538 | 52 | 42 | 3.0 | 8.0 | 0.00 | 0.76 | 0.01 | 91 | 1011.0 |
| 20260507013025 | 52 | 22 | 1.0 | 3.0 | 0.00 | 0.76 | 0.01 | 91 | 1011.0 |
| 20260507011528 | 52 | 54 | 4.0 | 9.0 | 0.00 | 0.76 | 0.01 | 90 | 1010.8 |
| 20260507010023 | 52 | 32 | 0.0 | 3.0 | 0.01 | 0.76 | 0.01 | 90 | 1010.9 |
| 20260507004524 | 52 | 327 | 2.0 | 3.0 | 0.01 | 0.76 | 0.01 | 90 | 1010.9 |
| 20260507003021 | 52 | 355 | 2.0 | 8.0 | 0.01 | 0.76 | 0.01 | 90 | 1010.7 |
| 20260507001525 | 52 | 19 | 7.0 | 12.0 | 0.01 | 0.76 | 0.01 | 90 | 1010.7 |
| 20260507000026 | 52 | 35 | 5.0 | 10.0 | 0.00 | 0.76 | 0.00 | 90 | 1010.7 |
| 20260506234516 | 53 | 331 | 4.0 | 10.0 | 0.00 | 0.76 | 0.00 | 89 | 1010.7 |
| 20260506233015 | 53 | 30 | 2.0 | 6.0 | 0.00 | 0.76 | 0.00 | 88 | 1010.7 |
| 20260506231514 | 53 | 355 | 3.0 | 6.0 | 0.00 | 0.76 | 0.00 | 88 | 1010.7 |
| 20260506230012 | 53 | 57 | 3.0 | 11.0 | 0.00 | 0.76 | 0.00 | 88 | 1010.5 |
| 20260506224512 | 53 | 29 | 6.0 | 14.0 | 0.00 | 0.76 | 0.00 | 88 | 1010.5 |
| 20260506223009 | 53 | 42 | 9.0 | 14.0 | 0.00 | 0.76 | 0.00 | 89 | 1010.4 |
| 20260506221506 | 53 | 346 | 4.0 | 6.0 | 0.00 | 0.76 | 0.00 | 90 | 1010.4 |
| 20260506220014 | 53 | 348 | 4.0 | 9.0 | 0.00 | 0.76 | 0.00 | 90 | 1010.4 |
| 20260506214503 | 53 | 20 | 3.0 | 7.0 | 0.00 | 0.80 | 0.76 | 90 | 1010.3 |
| 20260506213002 | 53 | 25 | 4.0 | 12.0 | 0.00 | 0.80 | 0.76 | 91 | 1010.2 |
| 20260506211507 | 53 | 37 | 4.0 | 6.0 | 0.00 | 0.80 | 0.76 | 91 | 1010.3 |
| 20260506210005 | 53 | 346 | 4.0 | 8.0 | 0.00 | 0.80 | 0.76 | 92 | 1010.4 |
| 20260506204501 | 53 | 342 | 1.0 | 4.0 | 0.00 | 0.84 | 0.76 | 91 | 1010.2 |
| 20260506203100 | 52 | 42 | 2.0 | 5.0 | 0.00 | 0.84 | 0.76 | 91 | 1010.0 |
| 20260506201559 | 52 | 36 | 3.0 | 8.0 | 0.00 | 0.84 | 0.76 | 91 | 1010.0 |
| 20260506200059 | 52 | 35 | 2.0 | 5.0 | 0.00 | 0.84 | 0.76 | 92 | 1009.8 |
| 20260506194633 | 52 | 24 | 1.0 | 4.0 | 0.00 | 0.85 | 0.76 | 92 | 1009.6 |
| 20260506193105 | 52 | 38 | 2.0 | 4.0 | 0.00 | 0.85 | 0.76 | 91 | 1009.4 |
| 20260506191555 | 53 | 228 | 1.0 | 2.0 | 0.00 | 0.85 | 0.76 | 91 | 1009.4 |
| 20260506190101 | 53 | 15 | 1.0 | 5.0 | 0.04 | 0.85 | 0.76 | 90 | 1008.9 |
| 20260506184555 | 53 | 360 | 4.0 | 7.0 | 0.11 | 0.91 | 0.76 | 89 | 1008.4 |
| 20260506183053 | 54 | 125 | 5.0 | 12.0 | 0.15 | 0.91 | 0.76 | 89 | 1007.8 |
| 20260506181553 | 54 | 115 | 1.0 | 15.0 | 0.20 | 0.91 | 0.76 | 89 | 1007.5 |
| 20260506174553 | 55 | 202 | 4.0 | 6.0 | 0.09 | 0.84 | 0.64 | 87 | 1008.5 |
| 20260506173056 | 56 | 5 | 1.0 | 5.0 | 0.06 | 0.81 | 0.61 | 85 | 1007.9 |
| 20260506171556 | 56 | 38 | 8.0 | 16.0 | 0.02 | 0.76 | 0.56 | 82 | 1007.7 |
| 20260506164548 | 57 | 34 | 4.0 | 11.0 | 0.00 | 0.85 | 0.54 | 83 | 1007.2 |
| 20260506163107 | 58 | 360 | 1.0 | 2.0 | 0.00 | 0.85 | 0.54 | 84 | 1006.9 |
| 20260506161547 | 57 | 350 | 4.0 | 13.0 | 0.00 | 0.85 | 0.54 | 82 | 1006.7 |
| 20260506160047 | 57 | 36 | 7.0 | 14.0 | 0.00 | 0.85 | 0.54 | 82 | 1006.2 |
| 20260506154606 | 57 | 26 | 8.0 | 15.0 | 0.00 | 0.86 | 0.54 | 83 | 1006.2 |
| 20260506153050 | 57 | 33 | 10.0 | 15.0 | 0.00 | 0.86 | 0.54 | 83 | 1006.5 |
| 20260506151543 | 58 | 39 | 9.0 | 14.0 | 0.05 | 0.86 | 0.54 | 84 | 1006.7 |
| 20260506150042 | 57 | 42 | 9.0 | 14.0 | 0.05 | 0.86 | 0.54 | 86 | 1006.7 |
| 20260506144542 | 57 | 25 | 8.0 | 16.0 | 0.05 | 0.87 | 0.54 | 89 | 1006.8 |
| 20260506143048 | 56 | 11 | 2.0 | 7.0 | 0.06 | 0.87 | 0.54 | 91 | 1007.3 |
| 20260506141542 | 56 | 22 | 9.0 | 12.0 | 0.02 | 0.82 | 0.50 | 90 | 1007.2 |
| 20260506140040 | 56 | 33 | 4.0 | 14.0 | 0.19 | 0.82 | 0.50 | 91 | 1007.0 |
| 20260506134539 | 55 | 346 | 4.0 | 10.0 | 0.37 | 0.82 | 0.50 | 93 | 1006.9 |
| 20260506133040 | 54 | 28 | 4.0 | 9.0 | 0.39 | 0.81 | 0.49 | 93 | 1007.2 |
| 20260506131537 | 54 | 349 | 7.0 | 12.0 | 0.38 | 0.80 | 0.48 | 92 | 1007.3 |
| 20260506130035 | 54 | 328 | 6.0 | 19.0 | 0.20 | 0.62 | 0.30 | 88 | 1007.3 |
| 20260506124533 | 60 | 34 | 1.0 | 6.0 | 0.02 | 0.46 | 0.13 | 87 | 1007.0 |
| 20260506123034 | 61 | 138 | 6.0 | 11.0 | 0.00 | 0.43 | 0.10 | 85 | 1007.0 |
| 20260506121538 | 61 | 115 | 6.0 | 14.0 | 0.00 | 0.43 | 0.10 | 85 | 1006.8 |
| 20260506120031 | 62 | 119 | 9.0 | 17.0 | 0.00 | 0.43 | 0.10 | 83 | 1006.7 |
| 20260506114533 | 61 | 160 | 4.0 | 9.0 | 0.00 | 0.46 | 0.10 | 86 | 1006.8 |
| 20260506113026 | 60 | 113 | 4.0 | 8.0 | 0.00 | 0.46 | 0.10 | 86 | 1006.9 |
| 20260506111525 | 60 | 133 | 11.0 | 17.0 | 0.00 | 0.46 | 0.10 | 86 | 1006.9 |
| 20260506110025 | 60 | 149 | 6.0 | 19.0 | 0.00 | 0.46 | 0.10 | 87 | 1006.9 |
| 20260506104520 | 58 | 162 | 8.0 | 16.0 | 0.01 | 0.51 | 0.10 | 89 | 1007.1 |
| 20260506103017 | 58 | 137 | 8.0 | 12.0 | 0.01 | 0.51 | 0.10 | 89 | 1007.2 |
| 20260506101517 | 58 | 126 | 8.0 | 15.0 | 0.01 | 0.51 | 0.10 | 90 | 1007.2 |
| 20260506100017 | 58 | 142 | 9.0 | 17.0 | 0.01 | 0.51 | 0.10 | 90 | 1007.2 |
| 20260506094514 | 58 | 23 | 5.0 | 18.0 | 0.00 | 0.55 | 0.09 | 91 | 1007.1 |
| 20260506093012 | 57 | 180 | 7.0 | 17.0 | 0.00 | 0.55 | 0.09 | 92 | 1007.2 |
| 20260506091510 | 57 | 115 | 8.0 | 14.0 | 0.00 | 0.55 | 0.09 | 93 | 1007.3 |
| 20260506090008 | 56 | 134 | 8.0 | 16.0 | 0.00 | 0.55 | 0.09 | 93 | 1007.0 |
| 20260506084505 | 56 | 113 | 6.0 | 15.0 | 0.00 | 0.56 | 0.09 | 94 | 1007.0 |
| 20260506083002 | 56 | 130 | 3.0 | 13.0 | 0.00 | 0.56 | 0.09 | 93 | 1007.2 |
| 20260506081500 | 56 | 124 | 5.0 | 10.0 | 0.00 | 0.56 | 0.09 | 93 | 1007.3 |
| 20260506073058 | 56 | 131 | 7.0 | 13.0 | 0.00 | 0.56 | 0.09 | 95 | 1007.5 |
| 20260506071554 | 56 | 115 | 7.0 | 14.0 | 0.00 | 0.56 | 0.09 | 95 | 1007.4 |
| 20260506061547 | 55 | 162 | 6.0 | 11.0 | 0.01 | 0.70 | 0.09 | 95 | 1007.9 |
| 20260506044544 | 55 | 174 | 5.0 | 9.0 | 0.00 | 0.77 | 0.08 | 95 | 1008.2 |
| 20260506043035 | 55 | 159 | 3.0 | 11.0 | 0.01 | 0.77 | 0.08 | 95 | 1008.4 |
| 20260506041534 | 55 | 164 | 6.0 | 10.0 | 0.01 | 0.77 | 0.08 | 95 | 1008.5 |
| 20260506040050 | 55 | 113 | 3.0 | 11.0 | 0.02 | 0.77 | 0.08 | 95 | 1008.7 |
| 20260506034529 | 55 | 146 | 4.0 | 9.0 | 0.06 | 0.77 | 0.08 | 95 | 1008.6 |
| 20260506033028 | 55 | 161 | 3.0 | 10.0 | 0.07 | 0.76 | 0.07 | 95 | 1008.7 |
| 20260506031540 | 55 | 180 | 3.0 | 6.0 | 0.07 | 0.76 | 0.07 | 96 | 1008.7 |
| 20260506030023 | 55 | 229 | 3.0 | 7.0 | 0.06 | 0.76 | 0.06 | 96 | 1008.9 |